#timestamp,LO_Frequency,Hit,StdDev 
1599062415.4,286047000.5,P
1599062435.2,286047000.1,N
1599062455.1,286047001.1,N
1599062456.0,286047001.1,N
1599062475.8,286046998.6,N
1599062495.6,286046999.8,N
1599062515.5,286046999.3,N
1599062535.3,286046998.9,N
1599062555.1,286046996.5,Y
1599062575.9,286046999.1,P
1599062595.7,286046999.6,N
1599062615.6,286047001.1,P
1599062635.4,286047011.9,Y
1599062655.2,286047002.1,P
1599062675.1,286047004.1,P
1599062676.0,286047004.1,N
1599062695.8,286047001.9,N
1599062715.6,286047002.3,N
1599062735.5,286046999.8,N
1599062755.3,286047002.6,N
1599062775.2,286047000.0,N
1599062795.9,286047001.0,N
1599062815.7,286047001.4,N
1599062835.6,286047002.1,N
1599062855.4,286047000.5,N
1599062875.2,286047000.2,N
1599062895.1,286047004.3,Y
1599062896.0,286047004.3,P
1599062915.8,286046998.9,N
1599062935.7,286046999.5,N
1599062955.5,286046997.8,N
1599062975.3,286046995.1,N
1599062995.2,286046999.3,N
1599063015.0,286046998.5,N
1599063015.9,286046998.5,N
1599063035.8,286046996.7,N
1599063055.6,286047000.4,N
1599063075.4,286047001.2,N
1599063095.3,286046999.2,N
1599063115.1,286046997.2,N
1599063135.8,286047000.6,N
1599063155.7,286047002.3,N
1599063175.5,286047004.1,N
1599063195.4,286047003.2,N
1599063215.2,286047000.0,N
1599063235.0,286047000.3,N
1599063235.9,286047000.3,N
1599063255.8,286047000.7,N
1599063275.6,286046998.3,N
1599063295.4,286047000.0,N
1599063315.3,286047002.1,N
1599063335.1,286046999.9,N
1599063355.9,286047004.0,N
1599063375.7,286047004.3,N
1599063395.5,286047003.2,N
1599063415.4,286047004.2,N
1599063435.2,286047000.3,N
1599063455.0,286047001.9,N
1599063455.9,286047001.9,N
1599063475.8,286047000.3,N
1599063495.6,286047002.3,N
1599063515.5,286047001.6,N
1599063535.3,286047001.3,N
1599063555.1,286047003.1,N
1599063575.9,286047001.3,N
1599063595.7,286047002.2,N
1599063615.5,286047000.5,N
1599063635.4,286046998.7,N
1599063655.2,286047000.6,N
1599063675.1,286047002.4,N
1599063676.0,286047002.4,N
1599063695.8,286047000.4,N
1599063715.6,286047002.3,N
1599063735.5,286047002.6,N
1599063755.3,286046998.6,N
1599063775.1,286047000.1,N
1599063795.9,286047000.9,N
1599063815.7,286047002.7,N
1599063835.6,286047003.5,N
1599063855.4,286047003.8,N
1599063875.2,286047003.0,N
1599063895.1,286047002.7,N
1599063896.0,286047002.7,N
1599063915.8,286047000.0,N
1599063935.6,286047001.0,N
1599063955.5,286047001.8,N
1599063975.3,286047000.8,N
1599063995.2,286046996.7,N
1599064015.9,286046997.2,N
1599064035.7,286046998.4,N
1599064055.6,286046997.6,N
1599064075.4,286046995.0,N
1599064095.2,286046995.0,N
1599064115.1,286046995.2,N
1599064116.0,286046995.2,N
1599064135.8,286046995.7,N
1599064155.7,286046998.8,N
1599064175.5,286046996.9,N
1599064195.3,286046997.5,N
1599064215.2,286046998.6,N
1599064235.9,286047000.6,N
1599064255.7,286047004.2,N
1599064275.6,286047001.5,N
1599064295.4,286047001.6,N
1599064315.3,286047000.2,N
1599064335.1,286046999.7,N
1599064336.0,286046999.7,N
1599064355.8,286047000.1,N
1599064375.7,286047000.9,N
1599064395.5,286047001.7,N
1599064415.3,286047002.8,N
1599064435.2,286047000.1,N
1599064455.0,286046999.3,N
1599064455.9,286046999.3,N
1599064475.8,286046998.6,N
1599064495.6,286046999.1,N
1599064515.4,286046997.2,N
1599064535.3,286046997.2,N
1599064555.1,286046999.0,N
1599064575.8,286046998.2,N
1599064595.7,286046998.1,N
1599064615.5,286047001.0,N
1599064635.4,286046998.9,N
1599064655.2,286046996.7,N
1599064675.0,286046998.8,N
1599064675.9,286046998.8,N
1599064695.8,286047001.0,N
1599064715.6,286046999.2,N
1599064735.4,286046999.3,N
1599064755.3,286047000.5,N
1599064775.1,286046998.3,N
1599064795.9,286047000.0,N
1599064815.7,286047001.7,N
1599064835.5,286047004.3,Y
1599064855.4,286047001.7,P
1599064875.2,286047004.0,P
1599064895.0,286047004.1,N
1599064896.0,286047004.1,N
1599064915.8,286047005.7,Y
1599064935.6,286047001.8,P
1599064955.5,286047002.4,P
1599064975.3,286046998.2,P
1599064995.1,286047002.4,N
1599065015.9,286047001.7,N
1599065035.7,286047002.2,N
1599065055.6,286046998.2,N
1599065075.4,286046997.1,N
1599065095.2,286046997.7,N
1599065115.1,286046997.7,N
1599065116.0,286046997.7,N
1599065135.8,286046996.5,N
1599065155.6,286046996.7,N
1599065175.5,286046998.1,N
1599065195.3,286047001.0,N
1599065215.2,286047002.5,N
1599065235.9,286047002.4,N
1599065255.7,286046996.5,N
1599065275.6,286046995.0,N
1599065295.4,286046997.1,N
1599065315.3,286047000.2,N
1599065335.1,286047000.3,N
1599065336.0,286047000.3,N
1599065355.8,286046998.1,N
1599065375.7,286047000.0,N
1599065395.5,286047000.9,N
1599065415.3,286047000.2,N
1599065435.2,286047002.3,N
1599065485.0,286047002.0,E
1599065495.9,286046999.9,N
1599065515.7,286046997.1,P
1599065535.5,286047000.2,N
1599065555.4,286047000.2,N
1599065575.2,286046999.0,N
1599065595.1,286046996.6,N
1599065596.0,286046996.6,N
1599065615.8,286046999.4,N
1599065635.6,286046997.4,N
1599065655.5,286046997.4,N
1599065675.3,286046998.2,N
1599065695.2,286047000.5,N
1599065715.9,286046998.4,N
1599065735.7,286046999.4,N
1599065755.6,286046996.8,N
1599065775.4,286046995.3,Y
1599065795.2,286046996.6,P
1599065815.1,286046997.0,P
1599065816.0,286046997.0,P
1599065835.8,286046998.7,N
1599065855.7,286047002.4,N
1599065875.5,286047000.1,N
1599065895.3,286047000.7,N
1599065915.2,286047000.8,N
1599065935.0,286047002.0,N
1599065935.9,286047002.0,N
1599065955.8,286047002.7,N
1599065975.6,286046998.2,N
1599065995.4,286046999.6,N
